Regional Weather Roundup
Issued by NWS

Home | Current Version | Previous Version | Text Only | Print | Product List | Glossary On
Versions: 1 2 3 4 5 6 7 8 9 10 11 12 13 14 15 16 17 18 19 20 21 22 23 24 25 26 27 28 29 30 31 32 33 34 35 36 37 38 39 40 41 42 43 44 45 46 47 48 49 50
000
ASPQ40 PGUM 180312
RWRPQ
WEATHER ROUNDUP FOR THE MARIANAS AND MICRONESIA
NATIONAL WEATHER SERVICE TIYAN GU
100 PM CHST THU DEC 18 2014

GUZ001>004-180400-
MARIANA ISLANDS-

CITY           SKY/WX    TMP DP  RH WIND       PRES   REMARKS
GUAM AIRPORT   PTSUNNY   84  75  74 E13       29.91F HX  92
ANDERSEN AFB   PTSUNNY   81  77  89 NE16      29.91F
ROTA AIRPORT   MOSUNNY   84  75  74 NE16      29.92F HX  92
TINIAN AP      MOSUNNY   86  75  70 E15       29.90F HX  95
SAIPAN AP      MOSUNNY   88  73  62 NE20      29.91F HX  96

$$

PMZ161-180400-
REPUBLIC OF PALAU-

CITY           SKY/WX    TMP DP  RH WIND       PRES   REMARKS
KOROR AP       CLOUDY    86  79  79 E16G22    29.87F HX  99
KOROR WSO      CLOUDY    86  77  74 E7        29.86F HX  97

$$

PMZ171>174-180400-
FEDERATED STATES OF MICRONESIA-

CITY           SKY/WX    TMP DP  RH WIND       PRES   REMARKS
YAP AIRPORT    PTSUNNY   88  77  70 E12       29.85F HX 100
CHUUK AP       MOSUNNY   88  77  70 N10       29.78F HX 100
POHNPEI AP     CLOUDY    88  77  70 E15       29.74F HX 100
POHNPEI WSO    PTSUNNY   86  77  74 NE12      29.78F HX  97
KOSRAE AP      NOT AVBL

$$

PMZ181-180400-
REPUBLIC OF THE MARSHALL ISLANDS-

CITY           SKY/WX    TMP DP  RH WIND       PRES   REMARKS
KWAJALEIN AP   MOSUNNY   86  75  70 E28       29.76F HX  95
MAJURO AP      NOT AVBL
MAJURO WSO     CLOUDY    86  79  79 NE8       29.73F HX  99

$$



USA.gov is the U.S. government's official web portal to all federal, state and local government web resources and services.